Location: Allos
(44.2333°N, 6.6333°E)
Time: 06:22:41
(UTC+00:00)

Cosmos 2297 - Pass Details

Date: 01 December 2020
Orbit: 834 x 860 km, 71.0° (Epoch: 27 January)

Event Time Altitude Azimuth Distance (km) Brightness Sun altitude
Rises 16:47:27 0° 333° (NNW) 3,413 6.9 -9.1°
Reaches altitude 10° 16:49:54 10° 331° (NNW) 2,478 6.2 -9.5°
Maximum altitude 16:55:34 73° 248° (WSW) 889 4.0 -10.5°
Drops below altitude 10° 17:01:15 10° 164° (SSE) 2,478 6.2 -11.4°
Sets 17:03:42 0° 163° (SSE) 3,413 6.9 -11.9°
